Lapse_Rate
5.9 6.0 6.0 6.0 5.9 6.0 6.1 6.2 6.3 6.4 6.8 7.2 7.0 6.5 6.6 7.0 6.9 6.6 6.2 5.8 5.9 6.0 6.1 6.1 6.1 6.1 6.0 5.7 5.6 5.8 5.6 5.5 5.4 5.3 5.2 5.4 5.3 5.0 4.6 4.6 4.5 4.5 4.8 5.2 5.3 5.6 4.9
6.0 6.1 6.0 6.0 5.8 5.9 5.9 6.2 6.1 6.1 6.0 6.1 6.4 6.3 6.2 6.1 6.6 6.4 6.2 6.0 6.0 5.9 6.0 6.0 6.0 6.2 5.9 5.7 4.9 5.8 5.3 5.6 5.4 5.4 5.4 5.2 4.7 4.5 4.4 4.4 4.5 4.6 4.6 4.8 5.1 4.9 5.4
6.0 6.0 5.8 5.9 5.9 5.9 5.8 5.7 5.2 4.0 3.3 3.1 3.3 4.3 5.1 5.8 5.7 6.0 6.1 5.8 5.8 5.9 5.7 6.0 6.0 6.2 6.0 6.0 5.3 6.0 5.4 5.7 5.7 5.6 5.5 5.3 4.5 4.8 4.5 4.9 4.5 4.7 4.7 4.8 5.2 5.8 5.4
5.8 5.7 5.8 5.8 5.7 5.5 5.4 5.4 4.6 3.7 3.8 3.4 2.9 2.6 2.7 4.1 5.0 5.4 5.5 5.8 5.4 5.9 5.7 5.8 5.8 6.0 6.2 6.0 6.1 6.1 5.7 5.6 5.6 5.5 5.7 5.5 5.3 5.0 5.0 4.5 4.7 5.1 4.6 4.6 5.8 5.8 5.7
5.6 5.7 5.8 5.7 5.5 5.3 5.1 4.7 3.8 3.8 3.5 3.9 4.3 4.3 4.3 4.4 4.4 4.2 5.1 5.5 5.7 5.5 6.1 5.9 5.7 6.0 6.1 6.3 6.1 6.0 6.0 5.9 5.7 5.7 5.9 6.0 5.2 5.2 5.0 5.0 4.9 4.8 5.0 5.5 5.6 5.7 5.2
5.6 5.6 5.7 5.7 5.2 5.1 4.4 3.4 3.6 3.6 4.7 5.3 5.2 5.3 5.3 5.3 5.1 4.8 4.2 5.0 5.5 5.9 6.1 6.0 5.7 5.5 5.9 6.5 6.2 6.1 6.2 6.0 6.0 6.0 6.0 6.0 5.3 5.1 5.2 5.1 5.3 5.6 5.4 5.5 5.8 5.6 5.4
5.5 5.4 5.6 5.5 5.0 4.1 3.1 3.5 3.5 4.6 5.6 5.5 6.1 6.2 6.0 5.9 5.7 5.6 4.8 4.3 5.3 5.3 5.7 5.7 5.5 6.0 6.3 6.7 6.6 6.3 6.1 6.0 5.8 5.7 5.4 5.5 5.2 4.9 6.1 5.6 5.7 5.5 5.5 5.6 6.0 5.8 5.2
5.4 5.5 5.5 5.1 3.4 2.9 3.1 3.6 4.4 5.4 5.7 6.2 6.4 6.6 6.9 6.9 6.2 6.0 5.9 4.8 5.6 5.4 5.8 6.1 5.8 5.4 6.1 6.7 6.6 6.2 6.0 5.7 5.4 5.5 5.4 5.1 5.1 6.1 5.7 5.6 5.7 5.5 5.4 5.4 5.5 5.5 4.9
5.5 5.5 5.2 4.5 2.9 2.9 3.3 3.8 5.0 5.6 6.1 6.7 7.1 7.2 7.4 7.4 6.8 6.3 6.1 5.9 5.8 5.9 6.1 6.1 5.8 5.9 6.3 6.4 6.4 6.3 6.0 5.7 5.6 5.6 5.4 5.3 5.7 5.9 5.7 5.3 5.4 5.4 5.2 5.3 5.1 5.2 5.0
5.5 5.5 5.1 3.9 2.7 2.8 3.4 4.4 5.0 5.8 6.7 7.4 7.6 7.6 7.5 7.5 7.0 6.7 6.4 6.5 6.4 6.0 6.1 6.0 5.9 5.5 6.3 5.9 6.3 6.1 5.9 5.5 5.5 5.5 5.4 5.2 5.3 5.4 5.3 5.1 5.1 5.1 5.2 5.1 5.2 5.0 5.0
5.5 5.3 4.9 3.5 2.6 2.9 3.7 4.9 5.0 5.9 7.2 7.6 7.7 7.7 7.6 7.4 7.3 7.0 6.7 6.5 6.1 6.3 6.6 6.0 5.8 5.4 6.0 6.0 6.2 5.7 5.4 5.3 5.6 5.6 5.3 5.3 5.4 5.1 5.1 5.5 5.0 5.0 4.9 5.0 4.9 4.6 4.1
5.4 5.3 4.7 3.1 2.6 3.2 4.5 5.1 5.3 6.3 7.7 8.0 7.8 7.5 7.5 7.6 7.5 7.0 6.8 6.1 6.0 6.0 6.3 5.8 5.7 5.5 5.5 5.3 5.6 5.6 5.4 5.4 5.4 5.3 5.2 5.2 5.1 5.2 5.1 5.1 5.0 4.6 4.5 4.7 4.4 4.2 3.5
5.4 5.1 4.4 3.2 2.6 3.4 5.1 5.9 6.7 7.7 8.0 7.7 7.7 7.6 7.7 7.3 7.2 7.0 6.5 6.1 5.8 5.8 6.0 5.5 5.4 5.5 5.3 5.3 5.1 5.4 5.1 5.0 5.3 5.1 5.1 5.0 4.9 4.8 5.0 4.9 4.8 4.2 4.3 4.4 4.0 4.0 3.5
5.4 4.9 4.5 3.1 2.6 3.7 6.0 6.4 7.3 7.6 7.8 8.0 8.0 7.6 7.5 7.5 7.0 7.1 6.3 6.3 6.1 6.4 6.1 5.4 5.3 5.3 5.4 5.1 5.1 5.3 4.9 5.1 4.9 5.1 5.1 4.6 4.9 4.8 5.1 4.7 4.5 4.3 4.3 5.2 4.9 4.3 4.6
5.3 4.9 4.6 3.1 2.5 4.0 6.3 6.9 7.1 7.4 7.6 7.8 7.6 7.4 7.3 7.3 7.3 6.7 6.7 6.1 6.0 6.8 5.7 5.4 5.3 5.4 5.3 5.1 5.1 4.8 4.9 4.9 4.8 4.7 5.1 5.1 4.8 4.9 4.5 4.6 4.5 4.2 4.3 5.1 4.5 4.9 4.3
5.3 5.0 4.8 3.3 3.0 4.1 6.2 6.7 6.8 6.9 7.2 7.1 7.4 7.6 7.3 7.1 7.0 6.0 5.8 6.2 6.1 6.6 6.0 5.6 5.6 5.5 5.2 5.0 5.1 4.8 4.8 4.9 4.8 4.8 5.1 5.0 5.0 4.8 4.6 4.5 4.5 4.4 4.7 4.3 4.4 3.4 4.3
5.3 5.0 4.9 4.1 3.4 4.5 6.2 6.5 6.4 6.4 6.8 6.9 7.4 7.4 7.4 6.4 6.2 6.0 6.2 6.2 6.5 6.1 5.9 6.0 6.2 5.7 5.4 4.9 5.2 5.0 5.2 5.3 4.8 4.7 4.9 4.7 4.8 4.7 4.6 4.6 4.9 4.5 4.5 4.4 4.4 4.5 3.8
5.5 5.3 4.9 4.4 4.0 4.9 6.2 6.1 6.1 6.6 6.8 7.4 7.2 7.1 6.3 6.0 6.2 6.4 6.1 6.6 6.3 6.1 6.1 6.0 6.0 6.0 5.8 5.4 5.3 5.2 5.4 5.3 5.2 4.9 4.8 4.7 4.7 4.7 4.8 5.1 5.0 4.6 4.7 4.3 4.3 5.0 5.0
5.6 5.4 5.0 4.8 4.7 5.1 6.1 6.0 6.2 6.6 7.0 7.1 7.3 6.7 6.0 6.6 6.3 6.3 6.7 6.2 5.9 6.3 6.3 6.2 6.3 6.1 5.5 5.4 5.4 5.6 5.6 5.4 5.2 5.2 5.0 5.0 4.7 4.7 5.1 5.1 4.8 4.6 4.7 4.5 4.6 4.5 4.3
5.6 5.5 5.2 4.8 5.0 5.1 6.0 5.9 6.2 6.8 6.8 7.1 6.7 6.1 6.1 6.3 6.5 6.4 6.5 6.1 6.2 6.2 6.2 6.5 6.4 6.1 5.9 5.8 6.0 5.7 5.7 5.6 5.6 5.1 4.9 4.8 4.9 5.3 5.3 5.5 4.8 4.7 4.8 4.7 4.5 4.2 4.6
5.6 5.4 5.4 4.9 5.2 5.3 6.0 6.0 6.0 6.4 6.5 6.8 6.7 6.3 6.4 6.4 6.3 6.6 6.6 6.2 6.1 6.4 6.5 6.3 6.2 6.3 6.2 6.1 6.0 5.9 5.6 5.6 5.3 5.1 4.8 4.6 4.8 4.9 5.3 5.4 4.8 4.3 4.5 5.0 4.6 4.8 4.2
5.6 5.4 5.4 5.0 5.2 5.6 6.0 6.1 6.2 6.4 6.1 6.3 6.6 6.7 6.7 6.5 6.0 6.2 6.4 6.5 6.4 6.5 6.3 6.3 6.2 6.1 6.3 6.3 6.1 5.9 5.5 5.2 5.2 5.0 4.8 4.7 5.0 5.1 5.2 5.1 5.0 4.9 5.2 5.1 4.9 4.9 4.9
5.5 5.5 5.3 5.2 5.0 5.8 6.2 6.3 6.5 6.3 6.3 6.5 6.6 6.9 6.9 6.6 6.2 6.0 6.2 6.4 6.5 6.4 6.4 6.3 6.1 6.1 6.0 6.0 6.0 6.1 5.8 5.5 5.5 5.4 5.4 5.2 5.2 5.0 4.8 5.1 5.0 5.1 5.5 5.1 5.0 5.1 5.0
5.3 5.5 5.4 5.3 5.1 5.4 5.9 6.3 6.6 6.3 6.2 6.4 6.5 6.2 6.1 5.7 5.8 5.9 6.0 6.1 6.2 6.2 6.4 6.3 6.0 5.7 5.8 6.0 6.0 6.1 6.1 5.8 5.6 5.3 5.6 5.2 5.1 4.8 4.8 5.3 5.0 5.9 5.5 5.0 5.0 5.5 5.3
5.1 5.4 5.3 5.5 5.4 5.3 5.9 6.4 6.7 6.6 6.3 5.9 6.2 6.2 6.1 6.0 6.0 5.7 5.7 5.6 6.0 6.1 6.1 6.0 6.0 5.6 5.8 5.8 5.9 5.8 5.7 5.5 5.7 5.5 5.4 5.2 5.1 4.9 5.1 5.0 5.8 6.1 5.7 5.3 5.1 5.7 5.1
4.9 5.1 5.2 5.3 5.4 5.4 5.5 6.1 6.6 6.9 6.5 6.2 5.9 5.8 5.4 5.2 5.5 5.7 5.9 6.0 6.1 5.8 5.9 5.9 5.9 5.9 6.1 5.9 5.7 5.8 6.1 5.9 5.8 5.5 5.4 5.3 5.1 5.1 4.9 5.1 5.3 5.9 5.9 5.9 5.8 5.8 5.7
4.8 4.9 5.1 5.2 5.3 5.5 5.6 5.8 6.1 6.2 6.6 6.2 5.7 5.4 5.4 5.4 5.5 5.6 5.7 6.0 6.0 6.0 5.9 5.9 6.2 6.2 6.2 6.1 5.9 5.8 5.8 5.9 6.1 5.9 5.4 5.2 5.0 5.0 4.9 5.0 5.5 6.1 6.0 6.0 6.2 6.4 6.4
4.7 4.7 4.9 5.0 5.3 5.3 5.6 5.8 6.1 6.2 6.1 6.3 6.0 5.6 5.2 5.6 5.7 5.9 5.8 5.7 6.4 6.6 6.4 6.4 6.5 6.4 6.2 6.1 6.0 5.9 5.9 5.8 5.8 5.8 5.6 5.7 5.2 5.1 4.8 5.1 5.0 6.2 6.0 5.8 6.2 6.2 6.3
4.6 4.5 4.7 4.7 4.9 5.2 5.1 5.5 6.1 6.1 6.4 6.2 5.9 5.9 5.4 5.4 5.7 5.7 5.9 6.7 6.8 6.8 6.9 6.6 6.5 6.4 6.4 6.0 6.0 5.8 5.7 5.6 5.5 5.6 5.7 5.8 5.7 5.7 5.9 6.1 6.2 6.0 6.3 6.5 6.4 6.4 6.6
Wind_Speed
21 21 21 21 24 24 25 23 23 23 23 24 24 25 26 23 23 24 23 22 20 17 16 12 8 7 3 7 7 6 6 6 11 11 14 12 12 10 11 8 11 12 15 11 9 9 7
22 22 23 22 25 24 25 25 26 24 25 25 25 25 24 25 23 23 24 23 21 17 17 13 10 6 4 11 4 9 7 9 11 15 13 11 7 9 5 12 8 5 9 11 13 6 8
22 25 26 26 26 25 26 26 26 24 25 27 27 27 25 23 26 25 26 24 21 27 16 14 11 7 10 12 0 5 4 4 6 15 13 11 3 3 5 4 7 5 10 10 12 11 9
23 24 27 28 29 28 30 27 28 25 23 25 24 27 27 23 25 24 26 23 18 25 17 17 13 9 6 2 1 4 6 7 6 6 16 7 5 2 2 4 1 4 9 8 10 19 13
25 27 29 31 31 32 31 30 27 23 24 24 23 24 26 24 23 21 21 20 19 24 19 19 7 7 7 6 6 9 6 9 6 4 8 7 5 3 2 1 4 7 6 10 9 5 4
24 28 31 31 31 32 32 28 28 26 26 25 22 22 23 22 19 18 16 21 16 16 7 5 6 7 8 9 7 11 7 6 8 8 8 6 3 4 3 5 5 6 8 8 8 5 3
28 29 30 31 31 32 31 30 28 26 26 24 22 21 23 20 19 17 11 6 2 6 8 5 13 2 15 10 9 9 11 9 8 9 6 9 5 7 12 13 12 12 7 10 7 6 6
28 28 29 30 32 32 32 30 28 27 26 24 22 23 21 15 19 16 9 4 4 5 5 15 16 4 12 11 9 11 12 8 7 9 6 4 8 10 8 6 5 6 8 10 10 10 7
29 31 30 32 31 31 30 29 28 26 25 23 23 23 14 18 18 12 9 12 9 6 4 8 10 12 11 6 9 14 15 10 10 9 8 6 1 11 11 6 4 7 7 8 11 11 11
28 31 30 30 29 30 28 28 26 25 24 25 23 22 15 14 12 5 6 4 12 6 3 11 9 8 9 6 6 13 10 6 5 13 8 7 6 3 8 9 6 5 2 5 8 7 4
29 30 30 29 30 29 28 27 27 27 26 24 24 26 23 11 3 5 7 9 9 3 5 13 8 9 10 6 13 11 11 4 8 8 5 4 6 6 4 5 6 3 6 5 5 6 7
30 29 29 28 29 28 28 27 27 28 25 25 28 30 31 11 6 9 8 5 3 0 2 4 6 12 13 12 5 10 8 3 3 2 9 3 5 2 6 5 4 6 2 3 4 3 4
29 29 29 28 27 28 27 27 28 27 26 27 30 33 22 5 3 11 9 2 1 3 7 7 8 13 16 12 8 13 10 7 5 5 4 6 6 3 3 4 3 5 1 1 2 3 6
27 28 29 28 26 27 27 28 29 27 28 29 31 31 9 1 4 13 4 3 4 8 3 6 13 15 9 15 7 11 11 9 10 6 6 6 5 13 9 8 5 8 5 3 5 3 4
27 30 29 28 27 27 27 28 30 27 29 30 28 6 3 2 10 5 2 2 2 6 9 10 17 6 9 12 7 9 9 7 10 10 6 5 2 9 11 5 8 4 7 2 5 5 3
27 30 28 28 28 27 28 28 30 28 30 34 4 4 3 5 8 3 1 2 5 6 15 15 5 5 9 15 8 9 12 12 10 15 10 2 1 2 7 4 6 6 5 2 1 3 5
28 28 28 27 27 26 27 29 30 32 35 32 2 1 2 3 2 1 2 3 2 18 9 1 9 8 9 13 6 8 11 3 15 12 13 3 2 3 5 8 9 5 6 3 3 4 4
26 28 27 27 25 27 28 30 31 33 37 5 2 3 4 4 1 2 1 3 7 7 1 5 4 10 11 13 5 9 9 7 12 9 11 5 2 3 9 9 13 11 8 13 4 6 5
25 26 27 26 24 26 28 30 33 35 30 2 2 1 1 2 1 1 3 3 5 5 5 3 4 5 15 12 6 8 7 5 3 5 11 8 3 2 2 3 8 6 7 12 16 11 17
24 26 27 26 24 25 28 30 32 35 32 3 1 2 1 2 3 3 2 5 4 5 10 8 7 7 12 7 1 7 7 1 5 4 8 8 3 5 3 2 3 3 6 9 10 8 13
24 26 25 25 25 26 27 29 31 34 32 4 3 2 3 1 3 3 5 4 6 4 4 5 3 5 9 4 5 6 8 8 4 5 4 1 3 4 8 13 13 12 17 17 17 18 15
22 24 24 24 24 25 26 27 28 32 33 2 2 2 4 3 5 6 3 3 4 6 7 3 5 6 3 5 7 6 6 7 5 7 5 4 3 3 10 14 16 16 16 17 18 19 19
19 21 22 23 23 24 24 24 27 29 22 2 3 2 2 3 1 5 3 6 3 3 5 7 5 4 5 8 7 4 4 4 4 7 8 4 2 2 4 7 10 7 7 6 8 12 12
18 18 19 22 22 23 24 25 25 26 23 2 1 2 2 2 4 2 2 2 4 4 6 5 4 4 1 4 4 2 4 3 4 4 6 5 4 2 4 7 2 3 9 8 9 15 12
18 17 18 19 19 20 20 21 21 23 25 5 3 3 3 3 2 1 3 3 5 4 6 5 4 3 2 3 2 3 3 3 6 10 11 6 3 2 2 3 9 1 4 2 3 6 5
17 17 17 17 18 18 18 19 19 19 21 7 1 3 2 3 1 9 4 5 5 4 3 4 3 3 2 1 2 1 1 3 4 3 3 10 5 2 1 3 3 3 3 3 4 4 2
17 17 16 15 17 17 17 17 18 18 18 7 1 3 3 2 3 7 2 4 2 1 3 3 3 2 3 1 1 1 2 3 2 5 5 3 3 7 5 3 6 6 2 4 2 5 6
17 17 15 16 16 17 17 17 16 17 17 8 3 4 2 3 7 5 8 3 2 1 3 3 2 1 1 2 2 1 1 2 3 2 5 7 6 4 3 4 6 0 4 2 3 5 5
17 17 17 17 17 17 17 16 15 14 15 13 3 2 1 3 5 5 9 10 3 3 2 3 1 2 2 3 1 1 2 3 3 3 1 3 3 3 7 5 6 3 7 4 2 3 5
Wind_Direction
347 343 337 336 334 330 327 327 328 327 326 323 325 326 324 325 319 319 318 323 312 261 230 222 229 249 245 219 259 142 115 154 209 214 215 213 205 209 227 228 235 230 246 258 256 275 306
335 330 328 331 330 323 322 327 322 319 320 319 318 318 320 322 315 319 316 315 321 308 224 213 204 229 231 239 135 155 175 174 212 201 216 229 209 228 256 243 224 196 262 258 271 257 256
334 337 335 333 322 320 320 323 316 314 318 313 316 318 320 317 315 313 316 305 311 322 212 210 194 212 230 229 221 158 213 226 218 195 206 220 88 246 11 311 315 332 300 276 256 248 240
334 337 331 327 328 327 322 326 322 320 317 315 311 312 313 314 311 308 309 301 310 309 230 198 190 219 243 151 178 188 212 203 239 260 204 181 94 83 14 31 92 253 246 261 253 218 224
335 336 336 333 332 327 329 331 329 322 315 313 311 311 309 316 309 302 308 305 305 303 280 175 172 224 232 145 187 205 219 191 161 141 141 159 151 130 79 172 236 213 267 220 255 169 179
334 338 338 337 332 331 333 331 326 324 318 318 315 311 308 313 314 308 326 313 280 284 177 169 269 187 216 203 157 179 192 199 161 156 138 161 130 162 172 185 202 224 212 254 287 142 167
345 342 335 333 334 336 334 330 329 325 323 321 316 314 313 311 320 318 328 320 281 187 197 187 169 245 146 101 129 163 184 161 185 178 183 196 199 191 194 200 236 280 301 307 311 331 321
339 334 328 339 335 336 333 332 330 330 325 325 323 321 311 302 316 307 308 251 248 16 187 241 165 151 132 154 138 170 179 141 177 188 189 163 239 218 241 279 303 266 281 283 286 285 304
337 338 339 336 335 337 336 335 335 332 327 327 318 313 322 313 317 299 244 234 99 345 255 189 196 173 152 187 141 159 183 140 174 202 160 188 71 219 240 236 231 267 264 283 290 306 315
339 338 343 341 342 340 339 339 339 335 328 320 329 328 329 319 311 309 284 218 108 234 181 160 179 154 157 202 117 154 198 160 179 202 184 237 250 212 198 223 202 251 329 325 335 340 270
338 341 344 343 341 341 341 340 337 336 331 330 327 321 311 264 250 274 316 123 118 236 156 145 149 140 164 202 120 164 204 74 179 187 148 207 221 177 218 214 206 234 68 7 346 320 341
339 346 343 344 341 343 340 341 338 330 332 331 326 317 309 286 220 238 234 119 89 50 161 121 134 169 156 148 74 142 174 42 341 212 196 148 13 261 204 205 264 63 86 222 249 264 257
339 344 342 343 344 341 344 344 336 337 332 331 328 318 316 280 223 176 135 188 166 249 169 126 147 160 162 153 120 152 164 171 160 135 190 245 207 155 280 173 165 142 130 305 236 202 237
341 346 345 345 346 343 344 343 340 336 334 332 331 321 312 300 225 122 121 81 240 110 145 178 139 143 165 153 139 167 165 188 226 234 127 187 214 181 185 218 153 193 186 213 269 235 303
344 342 346 346 346 345 346 342 346 340 330 330 330 332 344 52 135 128 172 163 276 129 134 126 130 120 131 185 134 157 181 191 204 224 210 162 257 145 156 189 219 153 207 278 309 262 269
345 342 350 347 346 350 345 344 346 339 335 331 321 335 1 84 131 69 303 20 299 120 115 147 103 176 155 183 146 171 180 196 207 196 233 29 194 157 134 191 219 187 162 79 191 258 261
345 346 353 351 348 350 346 349 348 345 339 330 88 72 333 339 162 271 1 321 247 127 158 301 134 139 144 169 159 183 176 188 195 191 207 155 253 88 75 206 192 198 233 226 340 229 235
346 349 352 353 351 350 351 353 350 348 338 14 35 76 268 327 16 310 81 252 124 57 347 68 128 133 151 154 153 178 191 263 175 157 189 176 94 223 217 231 208 207 207 216 222 236 230
346 348 353 354 354 353 354 356 352 348 354 331 53 51 306 328 186 105 293 226 70 59 26 63 66 107 139 154 139 212 115 88 108 189 167 151 198 264 282 195 221 215 226 219 234 266 250
347 348 355 355 355 357 358 359 354 353 358 8 118 71 184 219 236 47 332 67 78 350 48 62 108 120 146 164 127 163 104 122 146 149 56 151 184 213 223 145 109 270 264 257 258 258 267
350 351 356 357 360 0 1 3 360 354 354 341 6 23 9 19 148 161 291 98 63 84 46 19 80 136 139 151 105 148 133 122 166 137 144 222 246 270 263 276 282 270 267 262 250 254 256
351 352 356 356 358 358 0 4 5 2 349 67 45 343 326 297 135 158 57 15 51 58 6 27 102 94 18 84 55 165 166 172 167 167 190 178 268 330 286 260 252 256 261 259 263 263 262
350 352 354 353 358 359 0 8 10 6 6 0 347 319 301 322 238 190 152 175 178 150 40 27 45 108 60 42 36 7 16 39 68 155 181 148 183 260 264 333 311 265 253 238 259 261 261
344 350 351 352 357 358 2 5 9 8 13 329 338 287 308 174 253 120 114 112 151 50 97 64 11 23 22 336 297 224 179 195 232 171 157 167 162 213 289 314 286 192 182 201 244 275 272
336 343 344 350 353 356 359 359 4 7 9 358 324 340 337 299 274 169 189 157 105 100 84 90 59 58 353 294 277 221 166 189 226 212 194 173 154 243 272 285 268 330 305 188 236 294 4
330 336 337 344 345 350 353 357 357 7 5 357 322 318 313 305 267 306 197 168 146 163 145 128 86 358 295 284 277 245 238 260 151 131 105 188 189 193 335 295 283 231 126 138 162 260 329
326 325 329 336 335 339 346 353 354 357 0 356 287 0 287 288 281 338 197 204 83 203 79 91 134 137 336 177 314 245 266 344 252 180 174 174 175 228 246 262 279 279 99 125 280 279 344
322 321 323 325 326 329 333 339 351 353 354 358 291 86 6 310 288 293 310 295 116 235 172 127 134 175 93 157 226 149 253 284 291 302 188 174 176 196 180 228 274 174 334 327 269 312 330
318 319 321 319 321 321 323 325 335 347 345 354 319 348 295 235 278 318 283 285 351 357 125 168 53 131 89 93 22 342 298 329 4 283 25 266 234 174 181 213 249 253 210 240 107 287 309